DW9813 Weather Reports


time (UTC)temp
C
wind
direction
speed
KPH
gust
KPH
rain 1hr
cm
rain 24hr
cm
rain mn
cm
humidity
%
barometer
mb
20260507070537 6 0 0.0 0.0 0.00 0.00 0.00 90 1019.7
20260507070048 7 0 0.0 0.0 0.00 0.00 0.00 90 1019.8
20260507065538 7 0 0.0 0.0 0.00 0.00 0.00 90 1019.6
20260507065037 7 0 0.0 0.0 0.00 0.00 0.00 90 1019.7
20260507064546 7 0 0.0 0.0 0.00 0.00 0.00 90 1019.6
20260507064038 7 0 0.0 0.0 0.00 0.00 0.00 90 1019.4
20260507063538 7 0 0.0 1.6 0.00 0.00 0.00 90 1019.3
20260507063046 7 0 0.0 1.6 0.00 0.00 0.00 90 1019.3
20260507062538 7 0 0.0 1.6 0.00 0.00 0.00 89 1019.4
20260507062037 7 0 0.0 1.6 0.00 0.00 0.00 89 1019.4
20260507061556 7 290 0.0 1.6 0.00 0.00 0.00 89 1019.3
20260507061038 7 0 0.0 0.0 0.00 0.00 0.00 89 1019.4
20260507060538 7 0 0.0 0.0 0.00 0.00 0.00 89 1019.3
20260507060056 7 0 0.0 0.0 0.00 0.00 0.00 89 1019.4
20260507055538 7 0 0.0 0.0 0.00 0.00 0.00 89 1019.4
20260507055039 7 0 0.0 0.0 0.00 0.00 0.00 89 1019.4
20260507054546 7 0 0.0 0.0 0.00 0.00 0.00 89 1019.6
20260507054038 8 0 0.0 0.0 0.00 0.00 0.00 89 1019.4
20260507053538 8 0 0.0 0.0 0.00 0.00 0.00 88 1019.5
20260507053115 8 0 0.0 0.0 0.00 0.00 0.00 89 1019.3
20260507052538 8 0 0.0 0.0 0.00 0.00 0.00 89 1019.2
20260507052038 8 0 0.0 3.2 0.00 0.00 0.00 89 1019.3
20260507051550 8 0 0.0 4.8 0.00 0.00 0.00 89 1019.2
20260507051037 8 291 1.6 4.8 0.00 0.00 0.00 89 1019.2
20260507050537 8 290 0.0 3.2 0.00 0.00 0.00 88 1019.2
20260507050046 8 0 0.0 0.0 0.00 0.00 0.00 88 1019.2
20260507045540 8 0 0.0 0.0 0.00 0.00 0.00 88 1019.1
20260507045039 8 0 0.0 0.0 0.00 0.00 0.00 87 1019.1
20260507044546 8 0 0.0 0.0 0.00 0.00 0.00 87 1019.1
20260507044037 8 0 0.0 0.0 0.00 0.00 0.00 87 1019.1
20260507043538 8 0 0.0 0.0 0.00 0.00 0.00 87 1019.2
20260507043045 8 0 0.0 0.0 0.00 0.00 0.00 87 1019.2
20260507042538 8 0 0.0 0.0 0.00 0.00 0.00 86 1019.3
20260507042037 8 0 0.0 0.0 0.00 0.00 0.00 86 1019.1
20260507041547 8 0 0.0 0.0 0.00 0.00 0.00 86 1018.9
20260507041038 9 0 0.0 0.0 0.00 0.00 0.00 85 1019.0
20260507040538 9 0 0.0 0.0 0.00 0.00 0.00 85 1019.1
20260507040046 9 0 0.0 0.0 0.00 0.00 0.00 85 1019.1
20260507035538 9 0 0.0 0.0 0.00 0.00 0.00 85 1019.1
20260507035037 9 0 0.0 0.0 0.00 0.00 0.00 85 1019.1
20260507034551 10 0 0.0 0.0 0.00 0.00 0.00 85 1018.9
20260507034038 10 0 0.0 0.0 0.00 0.00 0.00 84 1018.8
20260507033538 10 0 0.0 0.0 0.00 0.00 0.00 84 1018.9
20260507033049 10 0 0.0 0.0 0.00 0.00 0.00 83 1018.7
20260507032539 10 0 0.0 3.2 0.00 0.00 0.00 83 1018.7
20260507032038 10 0 0.0 3.2 0.00 0.00 0.00 83 1018.7
20260507031551 10 0 0.0 3.2 0.00 0.00 0.00 82 1018.8
20260507031040 10 0 0.0 4.8 0.00 0.00 0.00 82 1018.6
20260507030537 10 290 1.6 4.8 0.00 0.00 0.00 81 1018.6
20260507030047 10 0 0.0 0.0 0.00 0.00 0.00 79 1018.5
20260507025537 11 0 0.0 0.0 0.00 0.00 0.00 78 1018.5
20260507025038 11 0 0.0 0.0 0.00 0.00 0.00 78 1018.4
20260507024544 11 0 0.0 0.0 0.00 0.00 0.00 77 1018.4
20260507024038 11 0 0.0 0.0 0.00 0.00 0.00 75 1018.3
20260507023537 11 0 0.0 0.0 0.00 0.00 0.00 75 1018.2
20260507023051 11 0 0.0 0.0 0.00 0.00 0.00 75 1018.2
20260507022537 12 0 0.0 0.0 0.00 0.00 0.00 74 1018.1
20260507022039 12 0 0.0 0.0 0.00 0.00 0.00 73 1018.0
20260507021545 12 0 0.0 0.0 0.00 0.00 0.00 72 1018.1
20260507021037 12 0 0.0 0.0 0.00 0.00 0.00 72 1018.0
20260507020538 12 0 0.0 0.0 0.00 0.00 0.00 70 1017.9
20260507020049 13 0 0.0 0.0 0.00 0.00 0.00 70 1017.7
20260507015537 13 0 0.0 0.0 0.00 0.00 0.00 68 1017.7
20260507015038 13 0 0.0 0.0 0.00 0.00 0.00 68 1017.7
20260507014554 13 0 0.0 0.0 0.00 0.00 0.00 67 1017.5
20260507014038 13 0 0.0 0.0 0.00 0.00 0.00 66 1017.5
20260507013538 14 0 0.0 1.6 0.00 0.00 0.00 65 1017.4
20260507013053 14 0 0.0 1.6 0.00 0.00 0.00 64 1017.4
20260507012537 14 0 0.0 1.6 0.00 0.00 0.00 63 1017.4
20260507012038 15 0 0.0 1.6 0.00 0.00 0.00 62 1017.4
20260507011551 15 0 0.0 1.6 0.00 0.00 0.00 62 1017.3
20260507011038 15 0 0.0 1.6 0.00 0.00 0.00 59 1017.4
20260507010537 15 0 0.0 1.6 0.00 0.00 0.00 60 1017.2
20260507005539 15 0 0.0 4.8 0.00 0.00 0.00 59 1017.1
20260507005038 16 0 0.0 4.8 0.00 0.00 0.00 58 1017.1
20260507004601 16 0 0.0 8.0 0.00 0.00 0.00 57 1017.1
20260507004037 16 60 1.6 9.7 0.00 0.00 0.00 56 1017.1
20260507003537 16 0 1.6 9.7 0.00 0.00 0.00 55 1017.1
20260507003048 16 348 1.6 8.0 0.00 0.00 0.00 56 1017.1
20260507002538 16 28 1.6 8.0 0.00 0.00 0.00 56 1017.1
20260507002038 16 0 0.0 8.0 0.00 0.00 0.00 59 1017.0
20260507001556 16 344 1.6 8.0 0.00 0.00 0.00 56 1017.0
20260507001037 16 346 3.2 8.0 0.00 0.00 0.00 57 1016.9
20260507000538 16 329 1.6 9.7 0.00 0.00 0.00 57 1017.0
20260507000054 16 351 1.6 12.9 0.00 0.00 0.00 59 1016.9
20260506235539 16 360 4.8 12.9 0.00 0.00 0.00 58 1017.0
20260506235037 16 360 3.2 14.5 0.00 0.00 0.00 58 1016.9
20260506234544 16 342 4.8 14.5 0.00 0.00 0.00 59 1016.9
20260506234040 16 23 4.8 9.7 0.00 0.00 0.00 58 1016.8
20260506233540 16 337 3.2 9.7 0.00 0.00 0.00 58 1016.8
20260506233043 16 338 4.8 14.5 0.00 0.00 0.00 58 1016.9
20260506232537 16 315 3.2 16.1 0.00 0.00 0.00 57 1016.9
20260506232037 16 13 3.2 16.1 0.00 0.00 0.00 58 1016.8
20260506231542 16 11 3.2 19.3 0.00 0.00 0.00 59 1016.9
20260506231036 16 304 6.4 19.3 0.00 0.00 0.00 58 1016.8
20260506230537 16 350 3.2 11.3 0.00 0.00 0.00 58 1016.8
20260506230049 16 35 4.8 11.3 0.00 0.00 0.00 58 1016.8
20260506225541 16 329 3.2 9.7 0.00 0.00 0.00 60 1016.7
20260506225037 16 10 3.2 17.7 0.00 0.00 0.00 58 1016.8
20260506224546 16 30 6.4 17.7 0.00 0.00 0.00 57 1016.7
20260506224039 16 331 9.7 16.1 0.00 0.00 0.00 57 1016.7
20260506223537 16 331 4.8 14.5 0.00 0.00 0.00 57 1016.7
20260506223051 16 348 6.4 16.1 0.00 0.00 0.00 57 1016.4
20260506222538 16 348 6.4 16.1 0.00 0.00 0.00 56 1016.4
20260506222038 16 13 8.0 16.1 0.00 0.00 0.00 55 1016.2
20260506221543 16 333 3.2 14.5 0.00 0.00 0.00 56 1016.2
20260506221037 16 348 3.2 14.5 0.00 0.00 0.00 55 1016.0
20260506220537 16 331 4.8 17.7 0.00 0.00 0.00 56 1015.8
20260506220048 17 346 4.8 17.7 0.00 0.00 0.00 55 1015.7
20260506215540 17 360 8.0 14.5 0.00 0.00 0.00 54 1015.7
20260506215041 17 313 6.4 12.9 0.00 0.00 0.00 56 1015.8
20260506214549 17 302 1.6 19.3 0.00 0.00 0.00 59 1015.7
20260506214038 16 338 3.2 19.3 0.00 0.00 0.00 60 1015.7
20260506213539 17 360 9.7 19.3 0.00 0.00 0.00 55 1015.7
20260506213047 17 347 8.0 22.5 0.00 0.00 0.00 56 1015.6
20260506212538 17 337 8.0 22.5 0.00 0.00 0.00 56 1015.6
20260506212038 17 325 9.7 27.4 0.00 0.00 0.00 58 1015.6
20260506211600 17 338 11.3 27.4 0.00 0.00 0.00 57 1015.3
20260506211040 17 313 11.3 20.9 0.00 0.00 0.00 56 1015.4
20260506210537 17 344 9.7 20.9 0.00 0.00 0.00 56 1015.5
20260506210049 17 34 11.3 20.9 0.00 0.00 0.00 57 1015.5
20260506205538 17 332 8.0 25.7 0.00 0.00 0.00 58 1015.8
20260506205037 17 342 11.3 25.7 0.00 0.00 0.00 59 1015.8
20260506204552 17 309 11.3 25.7 0.00 0.00 0.00 58 1015.7
20260506204040 17 346 9.7 22.5 0.00 0.00 0.00 59 1015.7
20260506203544 17 17 4.8 22.5 0.00 0.00 0.00 58 1016.0
20260506203043 16 296 8.0 20.9 0.00 0.00 0.00 57 1016.2
20260506202537 16 360 6.4 17.7 0.00 0.00 0.00 58 1016.3
20260506202038 16 309 4.8 17.7 0.00 0.00 0.00 58 1016.5
20260506201549 16 89 3.2 20.9 0.00 0.00 0.00 57 1016.6
20260506201037 16 90 8.0 20.9 0.00 0.00 0.00 56 1016.6
20260506200543 16 113 6.4 27.4 0.00 0.00 0.00 60 1016.5
20260506200055 16 121 8.0 27.4 0.00 0.00 0.00 61 1016.5
20260506195538 16 67 11.3 27.4 0.00 0.00 0.00 58 1016.5
20260506195040 15 14 9.7 19.3 0.00 0.00 0.00 58 1016.5
20260506194551 15 78 3.2 14.5 0.00 0.00 0.00 61 1017.0
20260506194041 15 53 4.8 12.9 0.00 0.00 0.00 59 1017.3
20260506193541 15 9 4.8 14.5 0.00 0.00 0.00 59 1017.1
20260506193053 15 97 3.2 14.5 0.00 0.00 0.00 62 1016.9
20260506192537 15 84 3.2 14.5 0.00 0.00 0.00 61 1016.9
20260506192044 15 112 4.8 14.5 0.00 0.00 0.00 61 1017.3
20260506191548 15 360 6.4 16.1 0.00 0.00 0.00 62 1017.5
20260506191040 15 334 4.8 16.1 0.00 0.00 0.00 61 1017.6
20260506190540 15 15 4.8 19.3 0.00 0.00 0.00 61 1017.6
20260506190043 14 38 6.4 19.3 0.00 0.00 0.00 62 1017.6
20260506185537 14 338 3.2 14.5 0.00 0.00 0.00 64 1017.7
20260506185037 14 72 4.8 14.5 0.00 0.00 0.00 62 1017.8
20260506184553 14 12 4.8 12.9 0.00 0.00 0.00 63 1017.7
20260506184037 13 9 1.6 16.1 0.00 0.00 0.00 65 1017.7
20260506183537 13 40 4.8 22.5 0.00 0.00 0.00 65 1017.7
20260506183052 13 350 6.4 22.5 0.00 0.00 0.00 65 1017.9
20260506182539 13 360 9.7 22.5 0.00 0.00 0.00 65 1017.9
20260506182041 13 352 4.8 16.1 0.00 0.00 0.00 66 1018.0
20260506181555 13 344 4.8 20.9 0.00 0.00 0.00 68 1017.8
20260506181041 13 323 4.8 20.9 0.00 0.00 0.00 68 1018.0
20260506180541 12 340 11.3 20.9 0.00 0.00 0.00 68 1018.4
20260506180104 12 352 8.0 19.3 0.00 0.00 0.00 68 1018.1
20260506175538 12 15 8.0 19.3 0.00 0.00 0.00 69 1018.1
20260506175037 12 331 9.7 20.9 0.00 0.00 0.00 68 1018.3
20260506174548 12 337 9.7 20.9 0.00 0.00 0.00 68 1018.2
20260506174040 12 9 9.7 19.3 0.00 0.00 0.00 68 1018.5
20260506173537 12 323 9.7 20.9 0.00 0.00 0.00 68 1018.5
20260506173119 12 298 8.0 20.9 0.00 0.00 0.00 69 1018.4
20260506172537 12 348 11.3 24.1 0.00 0.00 0.00 70 1018.5
20260506172037 12 352 11.3 24.1 0.00 0.00 0.00 69 1018.3
20260506171547 12 341 8.0 17.7 0.00 0.00 0.00 68 1018.6
20260506171040 12 339 8.0 17.7 0.00 0.00 0.00 70 1019.0
20260506170539 12 334 4.8 11.3 0.00 0.00 0.00 71 1019.0
20260506170059 12 329 3.2 11.3 0.00 0.00 0.00 71 1019.2
20260506165541 12 336 6.4 11.3 0.00 0.00 0.00 68 1019.4
20260506165038 12 12 1.6 6.4 0.00 0.00 0.00 68 1019.4
20260506164549 12 325 3.2 9.7 0.00 0.00 0.00 67 1019.6
20260506164040 12 344 3.2 9.7 0.00 0.00 0.00 68 1019.4
20260506163539 12 0 3.2 14.5 0.00 0.00 0.00 68 1019.4
20260506163059 12 329 3.2 16.1 0.00 0.00 0.00 69 1019.4
20260506162536 12 5 4.8 16.1 0.00 0.00 0.00 69 1018.9
20260506162041 12 360 6.4 16.1 0.00 0.00 0.00 68 1018.7
20260506161555 12 325 6.4 16.1 0.00 0.00 0.00 68 1018.3
20260506161040 12 51 4.8 16.1 0.00 0.00 0.00 68 1018.5
20260506160537 12 81 3.2 16.1 0.00 0.00 0.00 68 1018.4
20260506160057 12 98 1.6 11.3 0.00 0.00 0.00 69 1018.3
20260506155541 12 9 3.2 16.1 0.00 0.00 0.00 69 1018.3
20260506155037 12 43 1.6 16.1 0.00 0.00 0.00 70 1018.2
20260506154547 12 34 3.2 16.1 0.00 0.00 0.00 68 1018.0
20260506154038 12 24 3.2 19.3 0.00 0.00 0.00 69 1017.9
20260506153536 12 49 4.8 19.3 0.00 0.00 0.00 69 1018.0
20260506153046 12 350 4.8 16.1 0.00 0.00 0.00 69 1017.9
20260506152538 12 79 4.8 17.7 0.00 0.00 0.00 69 1017.6
20260506152039 12 335 6.4 19.3 0.00 0.00 0.00 70 1017.5
20260506151552 12 82 8.0 19.3 0.00 0.00 0.00 70 1017.7
20260506151036 11 25 6.4 16.1 0.00 0.00 0.00 70 1017.7
20260506150537 11 62 4.8 22.5 0.00 0.00 0.00 71 1017.6
20260506150057 11 346 6.4 22.5 0.00 0.00 0.00 70 1017.6
20260506145539 11 302 3.2 20.9 0.00 0.00 0.00 72 1017.3
20260506145039 11 74 6.4 20.9 0.00 0.00 0.00 72 1017.3
20260506144600 11 74 8.0 24.1 0.00 0.00 0.00 72 1017.5
20260506144040 11 83 6.4 24.1 0.00 0.00 0.00 72 1017.6
20260506143540 11 59 6.4 24.1 0.00 0.00 0.00 73 1017.6
20260506143050 11 318 6.4 24.1 0.00 0.00 0.00 73 1017.5
20260506142541 10 294 9.7 24.1 0.00 0.00 0.00 75 1017.6
20260506142040 10 319 4.8 19.3 0.00 0.00 0.00 75 1017.4
20260506141546 10 321 6.4 19.3 0.00 0.00 0.00 74 1017.3
20260506141037 10 349 8.0 19.3 0.00 0.00 0.00 74 1017.6
20260506140537 10 320 9.7 22.5 0.00 0.00 0.00 74 1017.3
20260506140047 10 11 9.7 22.5 0.00 0.00 0.00 74 1017.3
20260506135539 10 360 8.0 24.1 0.00 0.00 0.00 74 1017.3
20260506135039 10 360 8.0 24.1 0.00 0.00 0.00 74 1017.3
20260506134544 10 360 6.4 19.3 0.00 0.00 0.00 73 1017.2
20260506134040 10 344 6.4 19.3 0.00 0.00 0.00 74 1017.0
20260506133538 10 28 9.7 19.3 0.00 0.00 0.00 73 1017.0
20260506133057 10 321 9.7 22.5 0.00 0.00 0.00 74 1016.9
20260506132540 10 5 8.0 22.5 0.00 0.00 0.00 74 1017.1
20260506132037 10 360 9.7 22.5 0.00 0.00 0.00 73 1017.3
20260506131549 10 32 6.4 20.9 0.00 0.00 0.00 73 1017.2
20260506131040 10 352 4.8 20.9 0.00 0.00 0.00 73 1017.2
20260506130540 10 314 4.8 22.5 0.00 0.00 0.00 73 1017.3
20260506130051 10 341 8.0 22.5 0.00 0.00 0.00 73 1017.2
20260506125541 10 53 4.8 20.9 0.00 0.00 0.00 73 1017.1
20260506125041 10 39 4.8 19.3 0.00 0.00 0.00 73 1017.0
20260506124551 10 352 9.7 19.3 0.00 0.00 0.00 72 1017.0
20260506124043 10 15 8.0 17.7 0.00 0.00 0.00 72 1016.9
20260506123536 10 308 6.4 16.1 0.00 0.00 0.00 72 1017.0
20260506123048 10 348 6.4 16.1 0.00 0.00 0.00 72 1017.0
20260506122540 10 60 6.4 19.3 0.00 0.00 0.00 73 1017.3
20260506122041 10 348 8.0 19.3 0.00 0.00 0.00 72 1017.1
20260506121545 10 283 8.0 19.3 0.00 0.00 0.00 73 1016.9
20260506121040 10 55 8.0 19.3 0.00 0.00 0.00 73 1016.8
20260506120540 10 61 8.0 19.3 0.00 0.00 0.00 73 1016.6
20260506120045 10 324 8.0 20.9 0.00 0.00 0.00 73 1016.4
20260506115543 10 352 6.4 27.4 0.00 0.00 0.00 73 1016.5
20260506115039 10 340 11.3 27.4 0.00 0.00 0.00 73 1016.2
20260506114540 10 333 11.3 22.5 0.00 0.00 0.00 72 1016.0
20260506114039 10 352 8.0 20.9 0.00 0.00 0.00 72 1016.0
20260506113539 10 11 9.7 20.9 0.00 0.00 0.00 72 1015.9
20260506113047 10 325 6.4 29.0 0.00 0.00 0.00 72 1015.8
20260506112540 10 352 11.3 29.0 0.00 0.00 0.00 71 1015.7
20260506112043 10 360 8.0 19.3 0.00 0.00 0.00 72 1015.6
20260506111546 10 338 9.7 22.5 0.00 0.00 0.00 72 1015.6
20260506111039 10 352 11.3 22.5 0.00 0.00 0.00 73 1015.4
20260506110539 10 342 11.3 22.5 0.00 0.00 0.00 73 1015.3
20260506110048 10 331 11.3 22.5 0.00 0.00 0.00 73 1015.2
20260506105542 10 344 11.3 22.5 0.00 0.00 0.00 74 1015.1
20260506105043 10 346 12.9 24.1 0.00 0.00 0.00 73 1015.0
20260506104557 10 317 9.7 25.7 0.00 0.00 0.00 74 1015.0
20260506104039 10 316 11.3 27.4 0.00 0.00 0.00 74 1015.0
20260506103540 10 360 11.3 27.4 0.00 0.00 0.00 74 1015.1
20260506103044 10 336 11.3 24.1 0.00 0.00 0.00 74 1015.0
20260506102542 10 332 8.0 22.5 0.00 0.00 0.00 74 1015.1
20260506102041 10 15 11.3 27.4 0.00 0.00 0.00 74 1015.1
20260506101545 10 348 11.3 17.7 0.00 0.00 0.00 74 1015.1
20260506101043 10 11.3 19.3 0.00 0.00 0.00 75 1014.9
20260506100539 10 309 11.3 19.3 0.00 0.00 0.00 75 1014.4
20260506100059 10 340 9.7 17.7 0.00 0.00 0.00 75 1014.4
20260506095539 10 5 8.0 17.7 0.00 0.00 0.00 76 1014.3
20260506095042 10 331 6.4 16.1 0.00 0.00 0.00 77 1014.3
20260506094558 10 334 8.0 16.1 0.00 0.00 0.00 76 1014.1
20260506094039 10 329 4.8 20.9 0.00 0.00 0.00 77 1014.0
20260506093539 10 341 4.8 20.9 0.00 0.00 0.00 77 1013.7
20260506093045 10 61 6.4 20.9 0.00 0.00 0.00 78 1013.7
20260506092540 10 336 6.4 19.3 0.00 0.00 0.00 78 1013.6
20260506092040 10 63 6.4 22.5 0.00 0.00 0.00 78 1013.5
20260506091548 10 340 3.2 22.5 0.00 0.00 0.00 79 1013.3
20260506091039 10 352 3.2 16.1 0.00 0.00 0.00 79 1013.0
20260506090537 10 339 4.8 16.1 0.00 0.00 0.00 80 1012.9
20260506090049 10 0 4.8 16.1 0.00 0.00 0.00 80 1012.9
20260506085539 10 352 4.8 17.7 0.00 0.00 0.00 80 1013.0
20260506085039 10 325 4.8 19.3 0.00 0.00 0.00 80 1012.8
20260506084557 10 340 9.7 19.3 0.00 0.00 0.00 80 1012.8
20260506084038 10 313 6.4 20.9 0.00 0.00 0.00 80 1012.8
20260506083538 10 315 8.0 20.9 0.00 0.00 0.00 81 1012.6
20260506083059 10 334 8.0 19.3 0.00 0.00 0.00 80 1012.6
20260506082540 10 309 6.4 25.7 0.00 0.00 0.00 81 1012.7
20260506082041 10 12 6.4 25.7 0.00 0.00 0.00 80 1012.7
20260506081550 10 352 8.0 22.5 0.00 0.00 0.00 81 1012.8
20260506081040 10 306 9.7 22.5 0.00 0.00 0.00 81 1012.8
20260506080537 10 311 11.3 22.5 0.00 0.00 0.00 81 1012.7
20260506073104 10 29 11.3 27.4 0.00 0.00 0.00 81 1012.7
20260506072543 10 350 4.8 24.1 0.00 0.00 0.00 81 1012.7
20260506072036 10 329 9.7 20.9 0.00 0.00 0.00 81 1012.2
20260506071544 10 352 6.4 22.5 0.00 0.00 0.00 81 1012.2
20260506071037 10 360 9.7 22.5 0.00 0.00 0.00 81 1012.8